TimeEST,TemperatureF,Dew PointF,Humidity,Sea Level PressureIn,VisibilityMPH,Wind Direction,Wind SpeedMPH,Gust SpeedMPH,PrecipitationIn,Events,Conditions,WindDirDegrees,DateUTC
12:54 AM,39.9,37.9,93,29.75,5.0,ENE,23.0,32.2,0.08,Rain,Light Rain,70,2013-02-27 05:54:00
1:54 AM,41.0,39.0,93,29.71,4.0,ENE,20.7,27.6,0.05,Rain,Light Rain,70,2013-02-27 06:54:00
2:41 AM,42.8,39.2,87,29.68,2.5,ENE,17.3,-,0.04,Rain,Light Rain,60,2013-02-27 07:41:00
2:54 AM,42.1,39.9,92,29.68,3.0,ENE,13.8,23.0,0.05,Rain,Light Rain,60,2013-02-27 07:54:00
3:54 AM,42.1,39.9,92,29.63,4.0,NE,19.6,25.3,0.03,Rain,Light Rain,50,2013-02-27 08:54:00
4:54 AM,42.1,39.9,92,29.60,6.0,ENE,20.7,29.9,0.01,,Overcast,60,2013-02-27 09:54:00
5:54 AM,42.8,41.0,93,29.56,4.0,ENE,19.6,29.9,N/A,,Overcast,60,2013-02-27 10:54:00
6:54 AM,43.0,42.1,97,29.53,2.5,NE,18.4,28.8,N/A,,Overcast,50,2013-02-27 11:54:00
7:18 AM,44.6,42.8,93,29.52,1.8,ENE,15.0,-,N/A,,Overcast,60,2013-02-27 12:18:00
7:54 AM,45.0,44.1,97,29.54,1.5,ENE,12.7,17.3,N/A,,Overcast,70,2013-02-27 12:54:00
8:42 AM,44.6,44.6,100,29.54,2.0,ENE,5.8,-,0.01,,Overcast,60,2013-02-27 13:42:00
8:54 AM,46.0,45.0,96,29.54,1.8,ENE,3.5,-,0.02,Rain,Light Rain,70,2013-02-27 13:54:00
9:39 AM,46.4,46.4,100,29.53,2.5,NE,3.5,-,0.01,,Overcast,50,2013-02-27 14:39:00
9:46 AM,46.4,46.4,100,29.52,4.0,NE,10.4,-,0.02,,Overcast,50,2013-02-27 14:46:00
9:54 AM,46.9,46.0,97,29.53,6.0,Calm,Calm,-,0.02,,Overcast,0,2013-02-27 14:54:00
10:22 AM,46.4,46.4,100,29.53,8.0,NE,3.5,-,N/A,,Overcast,50,2013-02-27 15:22:00
10:54 AM,48.0,46.9,96,29.54,2.0,Calm,Calm,-,N/A,,Overcast,0,2013-02-27 15:54:00
11:01 AM,48.2,46.4,93,29.54,1.5,Calm,Calm,-,N/A,,Overcast,0,2013-02-27 16:01:00
11:36 AM,48.2,46.4,93,29.55,3.0,WSW,9.2,-,N/A,,Overcast,240,2013-02-27 16:36:00
11:49 AM,48.2,46.4,93,29.55,3.0,WSW,15.0,-,0.00,Rain,Light Rain,250,2013-02-27 16:49:00
11:54 AM,48.0,46.9,96,29.55,2.5,West,15.0,24.2,0.00,Rain,Light Rain,260,2013-02-27 16:54:00
12:05 PM,46.4,44.6,93,29.56,3.0,West,16.1,21.9,0.00,Rain,Light Rain,280,2013-02-27 17:05:00
12:27 PM,48.2,44.6,87,29.56,3.0,West,17.3,21.9,0.00,,Overcast,270,2013-02-27 17:27:00
12:35 PM,48.2,42.8,82,29.56,10.0,West,17.3,24.2,0.00,,Overcast,280,2013-02-27 17:35:00
12:54 PM,51.1,44.1,77,29.55,10.0,WNW,13.8,24.2,0.00,,Mostly Cloudy,290,2013-02-27 17:54:00
1:03 PM,50.0,42.8,76,29.56,10.0,West,19.6,25.3,N/A,,Scattered Clouds,280,2013-02-27 18:03:00
1:29 PM,51.8,41.0,67,29.56,10.0,West,19.6,28.8,N/A,,Mostly Cloudy,280,2013-02-27 18:29:00
1:52 PM,50.0,39.2,66,29.57,10.0,WNW,18.4,28.8,N/A,,Scattered Clouds,300,2013-02-27 18:52:00
1:54 PM,50.0,39.0,66,29.57,10.0,WNW,16.1,28.8,N/A,,Scattered Clouds,300,2013-02-27 18:54:00
2:54 PM,50.0,37.9,63,29.60,10.0,West,19.6,27.6,N/A,,Mostly Cloudy,280,2013-02-27 19:54:00
3:54 PM,48.9,37.0,64,29.62,10.0,WNW,15.0,20.7,N/A,,Overcast,290,2013-02-27 20:54:00
4:54 PM,48.9,37.0,64,29.63,10.0,WNW,8.1,-,N/A,,Overcast,290,2013-02-27 21:54:00
5:54 PM,48.0,36.0,63,29.65,10.0,West,4.6,-,N/A,,Mostly Cloudy,270,2013-02-27 22:54:00
6:54 PM,44.1,36.0,73,29.66,10.0,NNW,3.5,-,N/A,,Mostly Cloudy,330,2013-02-27 23:54:00
7:54 PM,46.0,37.0,71,29.68,10.0,Calm,Calm,-,N/A,,Overcast,0,2013-02-28 00:54:00
8:54 PM,46.4,37.4,71,29.68,10.0,West,5.8,-,N/A,,Overcast,270,2013-02-28 01:54:00
9:54 PM,46.9,35.1,63,29.68,10.0,WSW,4.6,-,N/A,,Overcast,240,2013-02-28 02:54:00
10:54 PM,46.0,33.1,61,29.67,10.0,SW,3.5,-,N/A,,Overcast,230,2013-02-28 03:54:00
11:54 PM,45.0,33.1,63,29.65,10.0,Calm,Calm,-,N/A,,Overcast,0,2013-02-28 04:54:00